Weather History for KFFO - August, 2013

Change the Weather History Date:

Friday, August 16, 2013

  Actual Average Record
Temperature  
Mean Temperature 64 °F -  
Max Temperature 75 °F 81 °F 91 °F (1997)
Min Temperature 55 °F 60 °F 49 °F (2014)
Growing Degree Days 14 (Base 50)    
Moisture  
Dew Point 54 °F    
Average Humidity 71    
Maximum Humidity 89    
Minimum Humidity 49    
Precipitation  
Precipitation 0.00 in - - ()
Sea Level Pressure  
Sea Level Pressure 30.16 in    
Wind  
Wind Speed 4 mph (NNE)    
Max Wind Speed 14 mph    
Max Gust Speed -    
Visibility 10 miles    
Events Fog    
Averages and records for this station are not official NWS values.
T = Trace of Precipitation, MM = Missing Value Source: NWS Daily Summary

Daily Weather History Graph

Daily Weather History Graph

Search for Another Location

Airport or City:

Trip Planner

Search our weather history database for the weather conditions in past years. The results will help you decide how hot, cold, wet, or windy it might be!

Date:

Astronomy

Aug. 16, 2013 Rise Set
Actual Time 6:49 AM EDT 8:30 PM EDT
Civil Twilight 6:20 AM EDT 8:59 PM EDT
Nautical Twilight 5:45 AM EDT 9:34 PM EDT
Astronomical Twilight 5:08 AM EDT 10:11 PM EDT
Moon 4:48 PM EDT (8/16) 1:51 AM EDT (8/16)
Length of Visible Light 14h 39m
Length of Day
13h 41m
Waxing Gibbous, 74% of the Moon is Illuminated
Aug 16
Waxing Gibbous
Aug 20
Full
Aug 28
Last Quarter
Sep 5
New
Sep 12
First Quarter

Hourly Weather History & Observations

Time (EDT) Temp. Dew Point Humidity Pressure Visibility Wind Dir Wind Speed Gust Speed Precip Events Conditions
12:58 AM 59.2 °F 54.9 °F 86% 30.14 in 10.0 mi North 2.3 mph - N/A   Partly Cloudy
1:58 AM 58.5 °F 54.5 °F 87% 30.14 in 10.0 mi NNE 3.5 mph - N/A   Partly Cloudy
2:58 AM 57.7 °F 54.0 °F 87% 30.14 in 10.0 mi NNE 2.3 mph - N/A   Clear
3:58 AM 57.2 °F 53.4 °F 87% 30.14 in 10.0 mi NNE 2.3 mph - N/A   Overcast
4:58 AM 57.4 °F 53.8 °F 88% 30.14 in 10.0 mi NNE 3.5 mph - N/A   Scattered Clouds
5:58 AM 57.7 °F 52.3 °F 82% 30.13 in 10.0 mi North 3.5 mph - N/A   Mostly Cloudy
6:58 AM 55.9 °F 52.9 °F 89% 30.16 in 7.0 mi Calm Calm - N/A Fog Shallow Fog
7:25 AM 55.4 °F 51.8 °F 88% 30.15 in 7.0 mi Calm Calm - N/A Fog Shallow Fog
7:58 AM 56.3 °F 53.2 °F 89% 30.16 in 7.0 mi Calm Calm - N/A Fog Shallow Fog
8:58 AM 60.4 °F 54.7 °F 81% 30.18 in 10.0 mi Variable 1.2 mph - N/A   Clear
9:58 AM 64.4 °F 55.8 °F 73% 30.18 in 10.0 mi North 3.5 mph - N/A   Mostly Cloudy
10:58 AM 68.9 °F 56.1 °F 64% 30.18 in 10.0 mi Variable 5.8 mph - N/A   Clear
11:58 AM 72.1 °F 53.6 °F 52% 30.17 in 10.0 mi NNE 8.1 mph - N/A   Partly Cloudy
12:58 PM 73.8 °F 53.6 °F 49% 30.17 in 10.0 mi Variable 4.6 mph - N/A   Mostly Cloudy
1:58 PM 72.7 °F 52.7 °F 49% 30.17 in 10.0 mi North 6.9 mph - N/A   Mostly Cloudy
2:30 PM 73.4 °F 53.6 °F 50% 30.17 in 10.0 mi NNE 9.2 mph - N/A   Mostly Cloudy
2:58 PM 74.1 °F 54.3 °F 50% 30.16 in 10.0 mi North 10.4 mph - N/A   Mostly Cloudy
3:58 PM 73.6 °F 53.2 °F 49% 30.15 in 10.0 mi NNE 13.8 mph - N/A   Mostly Cloudy
4:58 PM 72.3 °F 52.7 °F 50% 30.17 in 10.0 mi North 8.1 mph - N/A   Scattered Clouds
5:58 PM 72.5 °F 54.7 °F 53% 30.15 in 10.0 mi NNE 8.1 mph - N/A   Scattered Clouds
6:58 PM 72.9 °F 54.9 °F 53% 30.15 in 10.0 mi NE 8.1 mph - N/A   Partly Cloudy
7:58 PM 69.8 °F 58.5 °F 67% 30.17 in 10.0 mi North 2.3 mph - N/A   Clear
8:58 PM 64.8 °F 57.7 °F 78% 30.17 in 10.0 mi North 4.6 mph - N/A   Clear
9:58 PM 62.2 °F 56.7 °F 82% 30.17 in 10.0 mi North 1.2 mph - N/A   Clear
10:58 PM 61.2 °F 56.3 °F 84% 30.18 in 10.0 mi North 2.3 mph - N/A   Clear
11:58 PM 59.9 °F 54.9 °F 83% 30.18 in 10.0 mi Calm Calm - N/A   Clear